FW3072 Weather Reports


time (UTC)temp
C
wind
direction
speed
KPH
gust
KPH
rain 1hr
cm
rain 24hr
cm
rain mn
cm
humidity
%
barometer
mb
20260510123203 7 290 9.7 17.7 0.00 0.38 0.13 74 1014.1
20260510122203 7 321 4.8 16.1 0.00 0.38 0.13 74 1013.9
20260510121202 7 321 4.8 14.5 0.00 0.38 0.13 79 1013.7
20260510120202 7 305 4.8 8.0 0.00 0.38 0.13 81 1013.5
20260510115203 7 287 1.6 6.4 0.00 0.38 0.13 81 1013.4
20260510114202 7 270 1.6 9.7 0.00 0.38 0.13 84 1013.2
20260510113203 6 328 3.2 8.0 0.00 0.38 0.13 85 1013.0
20260510112202 6 295 0.0 6.4 0.00 0.38 0.13 85 1012.8
20260510111223 6 293 3.2 6.4 0.00 0.38 0.13 86 1012.8
20260510110203 6 286 1.6 4.8 0.00 0.38 0.13 87 1012.5
20260510105202 6 286 3.2 4.8 0.00 0.38 0.13 87 1012.4
20260510104203 6 286 0.0 9.7 0.00 0.38 0.13 87 1012.1
20260510103202 6 299 0.0 1.6 0.00 0.38 0.13 87 1011.8
20260510102203 6 300 0.0 3.2 0.00 0.38 0.13 87 1011.7
20260510101203 6 299 1.6 8.0 0.00 0.38 0.13 87 1011.2
20260510100203 6 310 3.2 11.3 0.00 0.38 0.13 88 1011.1
20260510095202 6 304 8.0 16.1 0.00 0.38 0.13 90 1011.0
20260510094204 6 338 0.0 11.3 0.00 0.38 0.13 90 1010.7
20260510093202 6 313 1.6 4.8 0.00 0.38 0.13 90 1010.8
20260510092203 7 295 3.2 6.4 0.00 0.38 0.13 90 1010.7
20260510091225 7 289 0.0 0.0 0.00 0.38 0.13 90 1010.7
20260510090202 7 289 0.0 3.2 0.00 0.38 0.13 90 1010.5
20260510085223 7 289 0.0 1.6 0.05 0.38 0.13 90 1010.0
20260510084203 7 289 0.0 0.0 0.05 0.38 0.13 90 1009.8
20260510083202 7 289 0.0 6.4 0.03 0.36 0.10 90 1010.0
20260510082202 7 282 0.0 4.8 0.03 0.36 0.10 90 1010.0
20260510081202 7 318 1.6 6.4 0.00 0.33 0.08 91 1010.3
20260510080202 7 318 0.0 3.2 0.00 0.33 0.08 91 1009.6
20260510075203 8 318 0.0 4.8 0.08 0.33 0.08 91 1009.4
20260510074202 8 355 3.2 4.8 0.08 0.33 0.08 91 1009.5
20260510073204 8 354 3.2 4.8 0.05 0.30 0.05 91 1009.0
20260510072202 8 296 0.0 4.8 0.05 0.30 0.05 91 1009.0
20260510071202 8 296 0.0 1.6 0.03 0.28 0.03 92 1008.8
20260510070223 9 297 3.2 6.4 0.00 0.25 0.00 92 1008.9
20260510065202 9 302 0.0 0.0 0.00 0.25 0.00 92 1008.7
20260510064202 9 301 0.0 3.2 0.00 0.25 0.00 92 1008.4
20260510063225 9 300 0.0 4.8 0.00 0.25 0.00 92 1008.5
20260510062204 10 301 0.0 0.0 0.00 0.25 0.00 92 1008.3
20260510061202 10 301 0.0 0.0 0.00 0.25 0.00 92 1008.3
20260510060203 10 301 0.0 0.0 0.00 0.25 0.00 92 1008.2
20260510055202 10 300 0.0 11.3 0.00 0.25 0.00 92 1008.3
20260510054202 10 307 3.2 6.4 0.00 0.25 0.00 92 1008.2
20260510053202 9 291 0.0 1.6 0.00 0.25 0.00 92 1008.1
20260510052223 9 292 0.0 0.0 0.00 0.25 0.00 92 1008.1
20260510051202 10 292 0.0 0.0 0.00 0.25 0.00 92 1007.8
20260510050203 10 292 0.0 0.0 0.00 0.25 0.00 92 1007.5
20260510045203 10 292 0.0 3.2 0.00 0.25 0.00 92 1007.2
20260510044205 10 296 1.6 6.4 0.00 0.25 0.00 91 1007.7
20260510043202 10 216 1.6 4.8 0.00 0.25 0.00 91 1007.3
20260510042224 10 217 0.0 0.0 0.00 0.25 0.00 91 1006.9
20260510041202 10 217 0.0 0.0 0.00 0.25 0.00 91 1006.6
20260510040203 10 217 0.0 1.6 0.00 0.25 0.00 91 1006.3
20260510035202 10 216 0.0 4.8 0.00 0.25 0.25 91 1006.4
20260510034203 10 216 0.0 11.3 0.00 0.25 0.25 91 1006.3
20260510033202 10 280 0.0 3.2 0.00 0.25 0.25 91 1006.5
20260510032205 10 279 0.0 3.2 0.00 0.25 0.25 91 1006.5
20260510031202 10 280 0.0 0.0 0.00 0.25 0.25 91 1006.4
20260510030202 10 279 0.0 3.2 0.00 0.25 0.25 91 1006.5
20260510025202 10 280 0.0 4.8 0.00 0.25 0.25 90 1006.3
20260510023223 10 280 0.0 0.0 0.00 0.25 0.25 90 1006.1
20260510022202 11 280 0.0 3.2 0.00 0.25 0.25 90 1005.8
20260510021202 11 303 0.0 8.0 0.00 0.25 0.25 90 1005.7
20260510020203 11 163 0.0 8.0 0.00 0.25 0.25 90 1005.8
20260510015202 11 261 0.0 6.4 0.00 0.25 0.25 90 1005.8
20260510014206 11 242 0.0 4.8 0.00 0.25 0.25 90 1005.6
20260510013202 11 242 1.6 6.4 0.00 0.25 0.25 90 1005.6
20260510012202 10 249 0.0 4.8 0.00 0.25 0.25 90 1005.5
20260510011202 10 198 4.8 8.0 0.00 0.25 0.25 90 1005.4
20260510010224 10 181 0.0 3.2 0.00 0.25 0.25 90 1005.4
20260510005203 10 182 0.0 3.2 0.00 0.25 0.25 90 1005.1
20260510004202 11 181 0.0 3.2 0.00 0.25 0.25 90 1004.7
20260510003203 11 181 0.0 4.8 0.00 0.25 0.25 89 1004.7
20260510002202 11 220 1.6 6.4 0.00 0.25 0.25 89 1004.8
20260510001225 11 221 0.0 4.8 0.00 0.25 0.25 89 1004.7
20260510000204 11 220 3.2 4.8 0.00 0.25 0.25 88 1004.8
20260509235202 11 212 4.8 9.7 0.20 0.25 0.25 88 1004.4
20260509234202 11 281 0.0 4.8 0.20 0.25 0.25 87 1004.5
20260509233203 11 285 3.2 19.3 0.15 0.20 0.20 86 1005.2
20260509232203 11 299 11.3 25.7 0.10 0.15 0.15 84 1005.3
20260509231202 12 289 8.0 27.4 0.05 0.10 0.10 82 1005.4
20260509230203 13 267 16.1 48.3 0.03 0.08 0.08 77 1005.8
20260509225203 16 242 4.8 16.1 0.00 0.00 0.00 74 1003.8
20260509224204 16 213 0.0 0.0 0.00 0.00 0.00 72 1002.9
20260509223202 16 213 0.0 0.0 0.00 0.00 0.00 72 1002.6
20260509222202 16 213 0.0 0.0 0.00 0.00 0.00 70 1002.4
20260509221202 16 213 0.0 0.0 0.00 0.00 0.00 71 1002.5
20260509220202 16 223 0.0 0.0 0.00 0.00 0.00 70 1002.6
20260509215224 16 223 0.0 0.0 0.00 0.00 0.00 70 1002.9
20260509214203 16 223 0.0 4.8 0.00 0.00 0.00 70 1002.9
20260509213203 16 224 3.2 4.8 0.00 0.00 0.00 70 1002.7
20260509212202 16 225 0.0 4.8 0.00 0.00 0.00 70 1002.8
20260509211203 16 211 4.8 12.9 0.00 0.00 0.00 69 1003.3
20260509210202 17 246 3.2 4.8 0.00 0.00 0.00 71 1003.3
20260509205202 17 223 3.2 9.7 0.00 0.00 0.00 71 1003.3
20260509204225 17 205 1.6 6.4 0.00 0.00 0.00 71 1003.4
20260509203202 17 252 3.2 14.5 0.00 0.00 0.00 70 1003.3
20260509202203 17 220 3.2 11.3 0.00 0.00 0.00 68 1003.5
20260509201223 17 245 3.2 8.0 0.00 0.00 0.00 68 1003.5
20260509200202 17 254 4.8 12.9 0.00 0.00 0.00 67 1003.6
20260509195202 18 203 4.8 11.3 0.00 0.00 0.00 65 1003.7
20260509194202 18 256 4.8 12.9 0.00 0.00 0.00 67 1003.5
20260509193202 18 220 6.4 19.3 0.00 0.00 0.00 67 1003.8
20260509192203 18 268 6.4 20.9 0.00 0.00 0.00 69 1004.0
20260509191223 17 291 9.7 20.9 0.00 0.00 0.00 68 1004.2
20260509190202 17 209 4.8 12.9 0.00 0.00 0.00 67 1004.4
20260509185202 17 218 4.8 14.5 0.00 0.00 0.00 68 1004.5
20260509184203 18 269 8.0 19.3 0.00 0.00 0.00 69 1004.6
20260509183203 17 207 3.2 11.3 0.00 0.00 0.00 69 1004.5
20260509182203 17 211 3.2 16.1 0.00 0.00 0.00 69 1004.7
20260509181202 17 225 6.4 12.9 0.00 0.00 0.00 72 1004.7
20260509180202 17 307 3.2 14.5 0.00 0.00 0.00 71 1004.7
20260509175203 17 255 4.8 9.7 0.00 0.00 0.00 71 1005.0
20260509174202 16 241 3.2 19.3 0.00 0.00 0.00 70 1005.1
20260509173202 17 247 4.8 22.5 0.00 0.00 0.00 69 1005.4
20260509172202 16 182 3.2 20.9 0.00 0.00 0.00 72 1005.4
20260509171202 16 198 6.4 17.7 0.00 0.00 0.00 69 1005.4
20260509170202 16 266 6.4 14.5 0.00 0.00 0.00 70 1005.5
20260509165202 16 193 6.4 14.5 0.00 0.00 0.00 72 1005.6
20260509164202 16 262 3.2 16.1 0.00 0.00 0.00 74 1005.7
20260509163223 15 293 6.4 20.9 0.00 0.00 0.00 74 1005.9
20260509162203 15 211 4.8 11.3 0.00 0.00 0.00 73 1006.1
20260509161203 15 293 3.2 14.5 0.00 0.00 0.00 74 1006.1
20260509160202 15 231 3.2 11.3 0.00 0.00 0.00 75 1006.1
20260509155205 15 240 4.8 11.3 0.00 0.00 0.00 75 1006.1
20260509154204 15 209 4.8 11.3 0.00 0.00 0.00 75 1006.3
20260509153202 15 214 3.2 9.7 0.00 0.00 0.00 77 1006.3
20260509152244 14 244 3.2 12.9 0.00 0.00 0.00 78 1006.3
20260509151203 14 225 1.6 9.7 0.00 0.00 0.00 77 1006.4
20260509150203 14 189 1.6 8.0 0.00 0.00 0.00 78 1006.5
20260509145203 13 168 0.0 8.0 0.00 0.00 0.00 79 1006.4
20260509144203 13 298 3.2 9.7 0.00 0.00 0.00 79 1006.4
20260509143202 13 272 4.8 9.7 0.00 0.00 0.00 80 1006.5
20260509142203 13 180 3.2 8.0 0.00 0.00 0.00 82 1006.6
20260509141227 13 197 1.6 9.7 0.00 0.00 0.00 82 1006.7
20260509140202 13 197 1.6 8.0 0.00 0.00 0.00 83 1006.8
20260509135202 12 222 1.6 6.4 0.00 0.00 0.00 83 1006.8
20260509134202 12 252 3.2 6.4 0.00 0.00 0.00 84 1006.9
20260509133204 12 207 4.8 9.7 0.00 0.00 0.00 84 1006.9
20260509132203 12 204 1.6 11.3 0.00 0.00 0.00 85 1006.9
20260509131204 12 238 0.0 1.6 0.00 0.00 0.00 86 1007.0
20260509130225 11 199 0.0 0.0 0.00 0.00 0.00 86 1006.9
20260509125202 11 200 0.0 0.0 0.00 0.00 0.00 87 1007.0
20260509124204 11 190 0.0 3.2 0.00 0.00 0.00 88 1007.2